THOR ABLESTAR DEB, 123

Orbit data source: Space-Track

THOR ABLESTAR DEB, 123 is space debris in LEO originally from a launch on Thu, 29 Jun 1961 UTC launched from the Air Force Eastern Test Range (AFETR). Debris objects in space refer to the collection of defunct objects orbiting the Earth. Examples of debris include non-operational satellites, rocket bodies, and fragments generated from explosions, collisions, or faulty payload assembly.

Loading next visibility...
Identifier
123, 1961-015H
Orbit
LEO
Country
Flag of USUS
Related business
Manufacturer
Unknown
Mission
Spacecraft
Bus & Motor
Unknown
Mass
Unknown
Launch date (UTC)
1961-06-29 (65 years ago)
Launch vehicle
Unknown
Launch site
Air Force Eastern Test Range (AFETR)
Object type
Payload
Rocket body
Debris
Shape & HBR
Unknown shape, 0.3 m
Radar Cross Section
Medium (>0.1 m² and <1 m²)

Expand to show TLE details & history
Last TLE update: 8 hours ago

TLE from 8 hours ago
0 THOR ABLESTAR DEB
1   123U 61015H   26133.36566309  .00000403  00000-0  14146-3 0  9998
2   123  66.6845 160.8253 0116135 293.2893  65.6021 14.41653017374513
Epoch: 2026-05-13T08:46Z
TLE epoch observation values (Epoch: 2026-05-13T08:46:33.290Z)
Latitude
-0.00006°
Longitude
158.05984°
Altitude
721.75 km
Speed
7.512 km/s
True Right ascension
10h 43m 18s
True Declination
0° 00' 00"
Sunlit
Object was in daylight at epoch
Visualization orbit readout
Latitude
Unknown
Longitude
Unknown
Altitude
Unknown
Speed
Unknown
Apparent Right ascension
Unknown
Apparent Declination
Unknown
Sunlit
N/A
Visualization observer readout
Local Sidereal Time
00:49:47
Azimuth
Unknown
Elevation
Unknown
Doppler factor
Unknown
Orbital elements
Apogee altitude
834.209 km
Perigee altitude
668.611 km
Semi-major axis
7,129.547 km
Eccentricity
0.01161
Inclination
66.6845°
RAAN
160.8253°
Arg. of periapsis
293.2893°
True anomaly
66.82128°
Mean anomaly
65.6021°
Eccentric anomaly
66.21097°
Mean motion
3.60537 °/min
Orbital period
99.85 mins
BSTAR
0.00014146
Loading maneuver chart data...
Computing Atmospheric mass density...
Loading historical data...
Loading historical data...
Loading historical data...
Loading historical data...
Loading historical data...
Loading historical data...
Loading historical data...

Documentation

Showing up to 5 results
|